| time (UTC) | temp F | wind direction | speed MPH | gust MPH | rain 1hr in | rain 24hr in | rain mn in | humidity % | barometer mb |
| 20260510200024 | 92 | 94 | 2.0 | 6.0 | 0.00 | 0.00 | 0.00 | 58 | 1014.8 |
| 20260510194521 | 93 | 122 | 1.0 | 3.0 | 0.00 | 0.00 | 0.00 | 55 | 1014.8 |
| 20260510193003 | 93 | 244 | 0.0 | 2.0 | 0.00 | 0.00 | 0.00 | 53 | 1015.0 |
| 20260510191520 | 93 | 137 | 0.0 | 4.0 | 0.00 | 0.00 | 0.00 | 53 | 1015.2 |
| 20260510190012 | 93 | 148 | 1.0 | 2.0 | 0.00 | 0.00 | 0.00 | 50 | 1015.4 |
| 20260510184517 | 93 | 142 | 0.0 | 4.0 | 0.00 | 0.00 | 0.00 | 51 | 1015.7 |
| 20260510183004 | 94 | 96 | 1.0 | 2.0 | 0.00 | 0.00 | 0.00 | 51 | 1015.6 |
| 20260510181507 | 93 | 126 | 0.0 | 7.0 | 0.00 | 0.00 | 0.00 | 52 | 1015.7 |
| 20260510180010 | 93 | 148 | 1.0 | 3.0 | 0.00 | 0.00 | 0.00 | 51 | 1015.8 |
| 20260510174515 | 95 | 93 | 1.0 | 3.0 | 0.00 | 0.00 | 0.00 | 50 | 1016.1 |
| 20260510173020 | 94 | 164 | 1.0 | 3.0 | 0.00 | 0.00 | 0.00 | 51 | 1016.2 |
| 20260510171510 | 94 | 165 | 1.0 | 2.0 | 0.00 | 0.00 | 0.00 | 52 | 1016.3 |
| 20260510170010 | 93 | 325 | 0.0 | 4.0 | 0.00 | 0.00 | 0.00 | 54 | 1016.6 |
| 20260510164520 | 92 | 100 | 0.0 | 2.0 | 0.00 | 0.00 | 0.00 | 55 | 1016.7 |
| 20260510163018 | 92 | 155 | 0.0 | 2.0 | 0.00 | 0.00 | 0.00 | 57 | 1016.7 |
| 20260510161524 | 92 | 238 | 1.0 | 2.0 | 0.00 | 0.00 | 0.00 | 57 | 1016.8 |
| 20260510160011 | 91 | 318 | 0.0 | 2.0 | 0.00 | 0.00 | 0.00 | 59 | 1017.0 |
| 20260510154512 | 90 | 146 | 0.0 | 2.0 | 0.00 | 0.00 | 0.00 | 60 | 1017.0 |
| 20260510153018 | 89 | 241 | 0.0 | 2.0 | 0.00 | 0.00 | 0.00 | 61 | 1017.0 |
| 20260510151523 | 89 | 248 | 0.0 | 2.0 | 0.00 | 0.00 | 0.00 | 63 | 1016.6 |
| 20260510150008 | 87 | 218 | 1.0 | 3.0 | 0.00 | 0.00 | 0.00 | 66 | 1016.7 |
| 20260510144512 | 88 | 101 | 1.0 | 4.0 | 0.00 | 0.00 | 0.00 | 64 | 1016.8 |
| 20260510143030 | 87 | 121 | 0.0 | 2.0 | 0.00 | 0.00 | 0.00 | 65 | 1016.7 |
| 20260510141518 | 88 | 57 | 1.0 | 3.0 | 0.00 | 0.00 | 0.00 | 64 | 1016.5 |
| 20260510140023 | 88 | 162 | 0.0 | 3.0 | 0.00 | 0.00 | 0.00 | 65 | 1016.5 |
| 20260510134510 | 87 | 257 | 1.0 | 2.0 | 0.00 | 0.00 | 0.00 | 68 | 1016.5 |
| 20260510133015 | 87 | 93 | 1.0 | 4.0 | 0.00 | 0.00 | 0.00 | 68 | 1016.5 |
| 20260510131516 | 87 | 72 | 1.0 | 2.0 | 0.00 | 0.00 | 0.00 | 70 | 1016.3 |
| 20260510130022 | 86 | 217 | 1.0 | 2.0 | 0.00 | 0.00 | 0.00 | 73 | 1016.3 |
| 20260510124508 | 84 | 121 | 1.0 | 2.0 | 0.00 | 0.00 | 0.00 | 76 | 1016.4 |
| 20260510123021 | 84 | 163 | 0.0 | 2.0 | 0.00 | 0.00 | 0.00 | 78 | 1016.1 |
| 20260510121521 | 83 | 153 | 0.0 | 2.0 | 0.00 | 0.00 | 0.00 | 78 | 1016.1 |
| 20260510120027 | 82 | 345 | 0.0 | 0.0 | 0.00 | 0.00 | 0.00 | 81 | 1016.0 |
| 20260510114526 | 80 | 345 | 0.0 | 0.0 | 0.00 | 0.00 | 0.00 | 82 | 1015.9 |
| 20260510113017 | 78 | 345 | 0.0 | 1.0 | 0.00 | 0.00 | 0.00 | 84 | 1015.7 |
| 20260510111517 | 77 | 349 | 0.0 | 0.0 | 0.00 | 0.00 | 0.00 | 84 | 1015.5 |
| 20260510110032 | 77 | 349 | 0.0 | 0.0 | 0.00 | 0.00 | 0.00 | 84 | 1015.4 |
| 20260510104525 | 77 | 349 | 0.0 | 2.0 | 0.00 | 0.00 | 0.00 | 84 | 1015.3 |
| 20260510103029 | 77 | 349 | 0.0 | 0.0 | 0.00 | 0.00 | 0.00 | 84 | 1015.2 |
| 20260510101512 | 77 | 349 | 0.0 | 0.0 | 0.00 | 0.00 | 0.00 | 84 | 1015.0 |
| 20260510100018 | 77 | 349 | 0.0 | 0.0 | 0.00 | 0.00 | 0.00 | 84 | 1014.9 |
| 20260510094541 | 77 | 349 | 0.0 | 2.0 | 0.00 | 0.00 | 0.00 | 84 | 1014.9 |
| 20260510093026 | 77 | 349 | 0.0 | 0.0 | 0.00 | 0.00 | 0.00 | 84 | 1014.9 |
| 20260510091521 | 77 | 349 | 0.0 | 0.0 | 0.00 | 0.00 | 0.00 | 84 | 1014.8 |
| 20260510090018 | 77 | 350 | 0.0 | 0.0 | 0.00 | 0.00 | 0.00 | 84 | 1014.5 |
| 20260510084528 | 77 | 349 | 0.0 | 0.0 | 0.00 | 0.00 | 0.00 | 83 | 1014.4 |
| 20260510083027 | 77 | 349 | 0.0 | 0.0 | 0.00 | 0.00 | 0.00 | 83 | 1014.5 |
| 20260510081527 | 77 | 349 | 0.0 | 0.0 | 0.00 | 0.00 | 0.00 | 83 | 1014.5 |
| 20260510080018 | 77 | 349 | 0.0 | 0.0 | 0.00 | 0.00 | 0.00 | 82 | 1014.5 |
| 20260510074524 | 78 | 349 | 0.0 | 1.0 | 0.00 | 0.00 | 0.00 | 81 | 1014.5 |
| 20260510073033 | 78 | 349 | 0.0 | 2.0 | 0.00 | 0.00 | 0.00 | 81 | 1014.5 |
| 20260510071529 | 78 | 347 | 0.0 | 2.0 | 0.00 | 0.00 | 0.00 | 81 | 1014.7 |
| 20260510070032 | 79 | 23 | 0.0 | 2.0 | 0.00 | 0.00 | 0.00 | 81 | 1014.7 |
| 20260510064517 | 79 | 23 | 0.0 | 2.0 | 0.00 | 0.00 | 0.00 | 81 | 1014.7 |
| 20260510063027 | 79 | 23 | 0.0 | 0.0 | 0.00 | 0.00 | 0.00 | 80 | 1014.7 |
| 20260510061528 | 79 | 23 | 0.0 | 2.0 | 0.00 | 0.00 | 0.00 | 80 | 1014.9 |
| 20260510060011 | 80 | 259 | 0.0 | 0.0 | 0.00 | 0.00 | 0.00 | 79 | 1015.0 |
| 20260510054516 | 80 | 259 | 0.0 | 0.0 | 0.00 | 0.00 | 0.00 | 78 | 1015.0 |
| 20260510053015 | 80 | 259 | 0.0 | 0.0 | 0.00 | 0.00 | 0.00 | 77 | 1015.1 |
| 20260510051506 | 81 | 259 | 0.0 | 0.0 | 0.00 | 0.00 | 0.00 | 76 | 1015.1 |
| 20260510050012 | 81 | 259 | 0.0 | 0.0 | 0.00 | 0.00 | 0.00 | 75 | 1015.2 |
| 20260510044517 | 81 | 259 | 0.0 | 0.0 | 0.00 | 0.00 | 0.00 | 74 | 1015.4 |
| 20260510043037 | 81 | 259 | 0.0 | 2.0 | 0.00 | 0.00 | 0.00 | 73 | 1015.3 |
| 20260510041508 | 82 | 259 | 0.0 | 0.0 | 0.00 | 0.00 | 0.00 | 72 | 1015.4 |
| 20260510040010 | 82 | 259 | 0.0 | 1.0 | 0.00 | 0.00 | 0.00 | 71 | 1015.4 |
| 20260510034516 | 82 | 259 | 0.0 | 2.0 | 0.00 | 0.00 | 0.00 | 71 | 1015.3 |
| 20260510033020 | 82 | 259 | 0.0 | 2.0 | 0.00 | 0.00 | 0.00 | 71 | 1015.3 |
| 20260510031527 | 82 | 272 | 0.0 | 2.0 | 0.00 | 0.00 | 0.00 | 70 | 1015.2 |
| 20260510030009 | 82 | 211 | 0.0 | 2.0 | 0.00 | 0.00 | 0.00 | 70 | 1015.1 |
| 20260510024514 | 83 | 215 | 0.0 | 2.0 | 0.00 | 0.00 | 0.00 | 69 | 1015.0 |
| 20260510023016 | 83 | 317 | 0.0 | 2.0 | 0.00 | 0.00 | 0.00 | 69 | 1014.8 |
| 20260510021536 | 83 | 317 | 0.0 | 2.0 | 0.00 | 0.00 | 0.00 | 68 | 1014.6 |
| 20260510020006 | 83 | 230 | 0.0 | 2.0 | 0.00 | 0.00 | 0.00 | 68 | 1014.5 |
| 20260510014507 | 84 | 252 | 0.0 | 2.0 | 0.00 | 0.00 | 0.00 | 68 | 1014.2 |
| 20260510013022 | 84 | 279 | 0.0 | 2.0 | 0.00 | 0.00 | 0.00 | 69 | 1014.2 |
| 20260510011525 | 84 | 286 | 0.0 | 2.0 | 0.00 | 0.00 | 0.00 | 68 | 1013.9 |
| 20260510010022 | 84 | 147 | 0.0 | 2.0 | 0.00 | 0.00 | 0.00 | 68 | 1013.7 |
| 20260510004507 | 85 | 109 | 0.0 | 2.0 | 0.00 | 0.00 | 0.00 | 66 | 1013.3 |
| 20260510003013 | 85 | 161 | 0.0 | 2.0 | 0.00 | 0.00 | 0.00 | 64 | 1013.0 |
| 20260510001519 | 85 | 109 | 0.0 | 2.0 | 0.00 | 0.00 | 0.00 | 67 | 1012.6 |
| 20260510000028 | 85 | 248 | 0.0 | 2.0 | 0.00 | 0.00 | 0.00 | 66 | 1012.4 |
| 20260509234526 | 86 | 98 | 1.0 | 2.0 | 0.00 | 0.00 | 0.00 | 66 | 1012.2 |
| 20260509233012 | 87 | 192 | 1.0 | 2.0 | 0.00 | 0.00 | 0.00 | 66 | 1012.2 |
| 20260509231517 | 87 | 111 | 1.0 | 2.0 | 0.00 | 0.00 | 0.00 | 65 | 1012.3 |
| 20260509230021 | 88 | 229 | 0.0 | 2.0 | 0.00 | 0.00 | 0.00 | 62 | 1012.1 |
| 20260509224525 | 89 | 138 | 0.0 | 2.0 | 0.00 | 0.00 | 0.00 | 60 | 1011.8 |
| 20260509223011 | 90 | 126 | 1.0 | 3.0 | 0.00 | 0.00 | 0.00 | 58 | 1011.7 |
| 20260509221514 | 91 | 184 | 0.0 | 3.0 | 0.00 | 0.00 | 0.00 | 56 | 1011.8 |
| 20260509220021 | 91 | 178 | 1.0 | 3.0 | 0.00 | 0.00 | 0.00 | 54 | 1011.9 |
| 20260509214524 | 92 | 179 | 0.0 | 2.0 | 0.00 | 0.00 | 0.00 | 53 | 1011.7 |
| 20260509213031 | 92 | 174 | 1.0 | 3.0 | 0.00 | 0.00 | 0.00 | 54 | 1011.7 |
| 20260509211512 | 92 | 118 | 1.0 | 3.0 | 0.00 | 0.00 | 0.00 | 54 | 1011.7 |
| 20260509210018 | 92 | 230 | 0.0 | 4.0 | 0.00 | 0.00 | 0.00 | 56 | 1011.7 |
| 20260509204523 | 93 | 66 | 1.0 | 3.0 | 0.00 | 0.00 | 0.00 | 56 | 1011.8 |
| 20260509203010 | 94 | 265 | 1.0 | 5.0 | 0.00 | 0.00 | 0.00 | 55 | 1012.0 |
| 20260509201509 | 95 | 213 | 1.0 | 2.0 | 0.00 | 0.00 | 0.00 | 54 | 1012.0 |